Time,TemperatureF,DewpointF,PressureIn,WindDirection,WindDirectionDegrees,WindSpeedMPH,WindSpeedGustMPH,Humidity,HourlyPrecipIn,Conditions,Clouds,dailyrainin,SoftwareType,DateUTC
2013-09-21 00:03:00,73.6,66.0,29.71,West,276,9.0,-999.0,76,-99.99,,,0.00,weatherlink.com 1.10,2013-09-21 04:03:00,
2013-09-21 00:18:00,73.8,66.0,29.71,WSW,250,1.0,-999.0,76,-99.99,,,0.00,weatherlink.com 1.10,2013-09-21 04:18:00,
2013-09-21 00:33:00,73.8,66.0,29.71,South,175,11.0,-999.0,76,-99.99,,,0.00,weatherlink.com 1.10,2013-09-21 04:33:00,
2013-09-21 00:48:00,73.6,66.0,29.71,SW,224,2.0,-999.0,76,-99.99,,,0.00,weatherlink.com 1.10,2013-09-21 04:48:00,
2013-09-21 01:03:00,73.6,66.0,29.71,WSW,257,7.0,-999.0,77,-99.99,,,0.00,weatherlink.com 1.10,2013-09-21 05:03:00,
2013-09-21 01:19:00,73.3,67.0,29.71,NW,312,9.0,-999.0,81,-99.99,,,0.00,weatherlink.com 1.10,2013-09-21 05:19:00,
2013-09-21 01:34:00,71.4,67.0,29.72,WNW,294,10.0,-999.0,86,-99.99,,,0.00,weatherlink.com 1.10,2013-09-21 05:34:00,
2013-09-21 01:49:00,70.7,67.0,29.71,WNW,284,12.0,-999.0,88,-99.99,,,0.00,weatherlink.com 1.10,2013-09-21 05:49:00,
2013-09-21 02:04:00,70.4,67.0,29.71,WNW,285,12.0,-999.0,89,-99.99,,,0.00,weatherlink.com 1.10,2013-09-21 06:04:00,
2013-09-21 02:19:00,70.0,67.0,29.70,WNW,286,6.0,-999.0,90,-99.99,,,0.00,weatherlink.com 1.10,2013-09-21 06:19:00,
2013-09-21 02:34:00,69.6,67.0,29.70,WNW,289,7.0,-999.0,90,-99.99,,,0.04,weatherlink.com 1.10,2013-09-21 06:34:00,
2013-09-21 02:49:00,69.2,67.0,29.70,West,273,5.0,-999.0,92,-99.99,,,0.06,weatherlink.com 1.10,2013-09-21 06:49:00,
2013-09-21 03:04:00,68.9,67.0,29.68,West,261,1.0,-999.0,92,-99.99,,,0.06,weatherlink.com 1.10,2013-09-21 07:04:00,
2013-09-21 03:19:00,68.9,67.0,29.68,WSW,249,0.0,-999.0,93,-99.99,,,0.08,weatherlink.com 1.10,2013-09-21 07:19:00,
2013-09-21 03:34:00,68.7,67.0,29.67,WSW,249,1.0,-999.0,93,-99.99,,,0.10,weatherlink.com 1.10,2013-09-21 07:34:00,
2013-09-21 03:49:00,68.5,67.0,29.66,WSW,249,2.0,-999.0,94,-99.99,,,0.10,weatherlink.com 1.10,2013-09-21 07:49:00,
2013-09-21 04:04:00,68.4,67.0,29.66,WSW,242,2.0,-999.0,94,-99.99,,,0.11,weatherlink.com 1.10,2013-09-21 08:04:00,
2013-09-21 04:19:00,68.5,66.0,29.66,WSW,257,4.0,-999.0,92,-99.99,,,0.13,weatherlink.com 1.10,2013-09-21 08:19:00,
2013-09-21 04:34:00,68.2,66.0,29.66,West,281,9.0,-999.0,92,-99.99,,,0.17,weatherlink.com 1.10,2013-09-21 08:34:00,
2013-09-21 04:49:00,68.0,66.0,29.66,WNW,300,7.0,-999.0,94,-99.99,,,0.28,weatherlink.com 1.10,2013-09-21 08:49:00,
2013-09-21 05:04:00,67.8,66.0,29.66,West,277,5.0,-999.0,95,-99.99,,,0.34,weatherlink.com 1.10,2013-09-21 09:04:00,
2013-09-21 05:19:00,67.8,66.0,29.66,WNW,282,5.0,-999.0,95,-99.99,,,0.36,weatherlink.com 1.10,2013-09-21 09:19:00,
2013-09-21 05:34:00,67.6,66.0,29.66,West,259,1.0,-999.0,95,-99.99,,,0.37,weatherlink.com 1.10,2013-09-21 09:34:00,
2013-09-21 05:49:00,67.4,66.0,29.66,West,259,0.0,-999.0,95,-99.99,,,0.39,weatherlink.com 1.10,2013-09-21 09:49:00,
2013-09-21 06:04:00,67.2,66.0,29.65,West,259,0.0,-999.0,95,-99.99,,,0.51,weatherlink.com 1.10,2013-09-21 10:04:00,
2013-09-21 06:19:00,67.1,66.0,29.65,NNE,28,0.0,-999.0,95,-99.99,,,0.56,weatherlink.com 1.10,2013-09-21 10:19:00,
2013-09-21 06:34:00,-999.0,-99.9,29.65,North,-999,-999.0,-999.0,-999,-99.99,,,0.56,weatherlink.com 1.10,2013-09-21 10:34:00,
2013-09-21 06:49:00,-999.0,-99.9,29.64,North,-999,-999.0,-999.0,-999,-99.99,,,0.56,weatherlink.com 1.10,2013-09-21 10:49:00,
2013-09-21 07:04:00,-999.0,-99.9,29.64,North,-999,-999.0,-999.0,-999,-99.99,,,0.56,weatherlink.com 1.10,2013-09-21 11:04:00,
2013-09-21 07:19:00,-999.0,-99.9,29.64,North,-999,-999.0,-999.0,-999,-99.99,,,0.56,weatherlink.com 1.10,2013-09-21 11:19:00,
2013-09-21 07:45:00,-999.0,-99.9,29.66,North,-999,-999.0,-999.0,-999,-99.99,,,0.56,weatherlink.com 1.10,2013-09-21 11:45:00,
2013-09-21 07:50:00,-999.0,-99.9,29.64,North,-999,-999.0,-999.0,-999,-99.99,,,0.56,weatherlink.com 1.10,2013-09-21 11:50:00,
2013-09-21 09:06:00,-999.0,-99.9,29.64,North,-999,-999.0,-999.0,-999,-99.99,,,0.56,weatherlink.com 1.10,2013-09-21 13:06:00,
2013-09-21 09:29:00,-999.0,-99.9,29.67,North,-999,-999.0,-999.0,-999,-99.99,,,0.56,weatherlink.com 1.10,2013-09-21 13:29:00,
2013-09-21 09:35:00,-999.0,-99.9,29.67,North,-999,-999.0,-999.0,-999,-99.99,,,0.56,weatherlink.com 1.10,2013-09-21 13:35:00,
2013-09-21 10:11:00,-999.0,-99.9,29.66,North,-999,-999.0,-999.0,-999,-99.99,,,0.56,weatherlink.com 1.10,2013-09-21 14:11:00,
2013-09-21 10:20:00,-999.0,-99.9,29.66,North,-999,-999.0,-999.0,-999,-99.99,,,0.56,weatherlink.com 1.10,2013-09-21 14:20:00,
2013-09-21 10:35:00,-999.0,-99.9,29.67,North,-999,-999.0,-999.0,-999,-99.99,,,0.56,weatherlink.com 1.10,2013-09-21 14:35:00,
2013-09-21 11:19:00,-999.0,-99.9,29.68,North,-999,-999.0,-999.0,-999,-99.99,,,0.56,weatherlink.com 1.10,2013-09-21 15:19:00,
2013-09-21 11:36:00,-999.0,-99.9,29.68,North,-999,-999.0,-999.0,-999,-99.99,,,0.56,weatherlink.com 1.10,2013-09-21 15:36:00,
2013-09-21 11:51:00,-999.0,-99.9,29.67,North,-999,-999.0,-999.0,-999,-99.99,,,0.56,weatherlink.com 1.10,2013-09-21 15:51:00,
2013-09-21 12:19:00,-999.0,-99.9,29.66,North,-999,-999.0,-999.0,-999,-99.99,,,0.56,weatherlink.com 1.10,2013-09-21 16:19:00,
2013-09-21 12:43:00,-999.0,-99.9,29.66,North,-999,-999.0,-999.0,-999,-99.99,,,0.56,weatherlink.com 1.10,2013-09-21 16:43:00,
2013-09-21 12:51:00,-999.0,-99.9,29.66,North,-999,-999.0,-999.0,-999,-99.99,,,0.56,weatherlink.com 1.10,2013-09-21 16:51:00,
2013-09-21 15:09:00,-999.0,-99.9,29.62,North,-999,-999.0,-999.0,-999,-99.99,,,0.56,weatherlink.com 1.10,2013-09-21 19:09:00,
2013-09-21 15:21:00,-999.0,-99.9,29.62,North,-999,-999.0,-999.0,-999,-99.99,,,0.56,weatherlink.com 1.10,2013-09-21 19:21:00,
2013-09-21 15:36:00,-999.0,-99.9,29.61,North,-999,-999.0,-999.0,-999,-99.99,,,0.56,weatherlink.com 1.10,2013-09-21 19:36:00,
2013-09-21 16:14:00,-999.0,-99.9,29.59,North,-999,-999.0,-999.0,-999,-99.99,,,0.56,weatherlink.com 1.10,2013-09-21 20:14:00,
2013-09-21 16:21:00,-999.0,-99.9,29.60,North,-999,-999.0,-999.0,-999,-99.99,,,0.56,weatherlink.com 1.10,2013-09-21 20:21:00,
2013-09-21 16:38:00,-999.0,-99.9,29.60,North,-999,-999.0,-999.0,-999,-99.99,,,0.56,weatherlink.com 1.10,2013-09-21 20:38:00,
2013-09-21 16:51:00,-999.0,-99.9,29.60,North,-999,-999.0,-999.0,-999,-99.99,,,0.56,weatherlink.com 1.10,2013-09-21 20:51:00,
2013-09-21 17:07:00,-999.0,-99.9,29.59,North,-999,-999.0,-999.0,-999,-99.99,,,0.56,weatherlink.com 1.10,2013-09-21 21:07:00,
2013-09-21 17:22:00,-999.0,-99.9,29.60,North,-999,-999.0,-999.0,-999,-99.99,,,0.56,weatherlink.com 1.10,2013-09-21 21:22:00,
2013-09-21 17:37:00,-999.0,-99.9,29.60,North,-999,-999.0,-999.0,-999,-99.99,,,0.56,weatherlink.com 1.10,2013-09-21 21:37:00,
2013-09-21 17:52:00,-999.0,-99.9,29.60,North,-999,-999.0,-999.0,-999,-99.99,,,0.56,weatherlink.com 1.10,2013-09-21 21:52:00,
2013-09-21 18:07:00,-999.0,-99.9,29.60,North,-999,-999.0,-999.0,-999,-99.99,,,0.56,weatherlink.com 1.10,2013-09-21 22:07:00,
2013-09-21 18:22:00,-999.0,-99.9,29.61,North,-999,-999.0,-999.0,-999,-99.99,,,0.56,weatherlink.com 1.10,2013-09-21 22:22:00,
2013-09-21 18:37:00,-999.0,-99.9,29.61,North,-999,-999.0,-999.0,-999,-99.99,,,0.56,weatherlink.com 1.10,2013-09-21 22:37:00,
2013-09-21 18:52:00,-999.0,-99.9,29.61,North,-999,-999.0,-999.0,-999,-99.99,,,0.56,weatherlink.com 1.10,2013-09-21 22:52:00,
2013-09-21 19:07:00,-999.0,-99.9,29.62,North,-999,-999.0,-999.0,-999,-99.99,,,0.56,weatherlink.com 1.10,2013-09-21 23:07:00,
2013-09-21 19:22:00,-999.0,-99.9,29.64,North,-999,-999.0,-999.0,-999,-99.99,,,0.56,weatherlink.com 1.10,2013-09-21 23:22:00,
2013-09-21 19:37:00,-999.0,-99.9,29.65,North,-999,-999.0,-999.0,-999,-99.99,,,0.56,weatherlink.com 1.10,2013-09-21 23:37:00,
2013-09-21 19:52:00,-999.0,-99.9,29.66,North,-999,-999.0,-999.0,-999,-99.99,,,0.56,weatherlink.com 1.10,2013-09-21 23:52:00,
2013-09-21 20:07:00,-999.0,-99.9,29.68,North,-999,-999.0,-999.0,-999,-99.99,,,0.56,weatherlink.com 1.10,2013-09-22 00:07:00,
2013-09-21 20:22:00,-999.0,-99.9,29.68,North,-999,-999.0,-999.0,-999,-99.99,,,0.56,weatherlink.com 1.10,2013-09-22 00:22:00,
2013-09-21 20:38:00,-999.0,-99.9,29.69,North,-999,-999.0,-999.0,-999,-99.99,,,0.56,weatherlink.com 1.10,2013-09-22 00:38:00,
2013-09-21 20:53:00,-999.0,-99.9,29.70,North,-999,-999.0,-999.0,-999,-99.99,,,0.56,weatherlink.com 1.10,2013-09-22 00:53:00,
2013-09-21 21:09:00,-999.0,-99.9,29.70,North,-999,-999.0,-999.0,-999,-99.99,,,0.56,weatherlink.com 1.10,2013-09-22 01:09:00,
2013-09-21 21:23:00,-999.0,-99.9,29.72,North,-999,-999.0,-999.0,-999,-99.99,,,0.56,weatherlink.com 1.10,2013-09-22 01:23:00,
2013-09-21 21:38:00,-999.0,-99.9,29.72,North,-999,-999.0,-999.0,-999,-99.99,,,0.56,weatherlink.com 1.10,2013-09-22 01:38:00,
2013-09-21 21:53:00,-999.0,-99.9,29.73,North,-999,-999.0,-999.0,-999,-99.99,,,0.56,weatherlink.com 1.10,2013-09-22 01:53:00,
2013-09-21 22:08:00,-999.0,-99.9,29.73,North,-999,-999.0,-999.0,-999,-99.99,,,0.56,weatherlink.com 1.10,2013-09-22 02:08:00,
2013-09-21 22:23:00,-999.0,-99.9,29.74,North,-999,-999.0,-999.0,-999,-99.99,,,0.56,weatherlink.com 1.10,2013-09-22 02:23:00,
2013-09-21 22:38:00,-999.0,-99.9,29.74,North,-999,-999.0,-999.0,-999,-99.99,,,0.56,weatherlink.com 1.10,2013-09-22 02:38:00,
2013-09-21 22:53:00,-999.0,-99.9,29.74,North,-999,-999.0,-999.0,-999,-99.99,,,0.56,weatherlink.com 1.10,2013-09-22 02:53:00,
2013-09-21 23:08:00,-999.0,-99.9,29.74,North,-999,-999.0,-999.0,-999,-99.99,,,0.56,weatherlink.com 1.10,2013-09-22 03:08:00,
2013-09-21 23:23:00,-999.0,-99.9,29.75,North,-999,-999.0,-999.0,-999,-99.99,,,0.56,weatherlink.com 1.10,2013-09-22 03:23:00,
2013-09-21 23:38:00,-999.0,-99.9,29.75,North,-999,-999.0,-999.0,-999,-99.99,,,0.56,weatherlink.com 1.10,2013-09-22 03:38:00,
2013-09-21 23:54:00,-999.0,-99.9,29.74,North,-999,-999.0,-999.0,-999,-99.99,,,0.56,weatherlink.com 1.10,2013-09-22 03:54:00,